Regional Weather Roundup
Issued by NWS

Home | Current Version | Previous Version | Text Only | Print | Product List | Glossary On
Versions: 1 2 3 4 5 6 7 8 9 10 11 12 13 14 15 16 17 18 19 20 21 22 23 24 25 26 27 28 29 30 31 32 33 34 35 36 37 38 39 40 41 42 43 44 45 46 47 48 49 50
000
ASUS43 KMKX 040600
RWRWI

WISCONSIN REGIONAL WEATHER ROUNDUP
NATIONAL WEATHER SERVICE MILWAUKEE/SULLIVAN WI
100 AM CDT FRI SEP 04 2015

NOTE: "FAIR" INDICATES FEW OR NO CLOUDS BELOW 12,000 FEET WITH NO
SIGNIFICANT WEATHER AND/OR OBSTRUCTIONS TO VISIBILITY.

WIZ001-002-006>008-014>016-023>028-040700-
NORTHWEST WISCONSIN

CITY           SKY/WX    TMP DP  RH WIND       PRES   REMARKS
SUPERIOR ARPT  CLEAR     57  56  95 E5        29.99S
ASHLAND        FOG       52  52 100 CALM      30.01S VSB 1/2
6HR MIN TEMP:  52; 6HR MAX TEMP:  61;

HAYWARD        FAIR      60  59  96 N6        30.00S FOG
6HR MIN TEMP:  60; 6HR MAX TEMP:  79;

SIREN          MOCLDY    69  65  90 E5        29.96S
CUMBERLAND     CLEAR     66  63  88 SE7       29.98S
RICE LAKE      PTCLDY    66  63  89 E3        29.99S
CHETEK         CLEAR     67  65  96 MISG      29.98S
LADYSMITH      CLEAR     65  64  96 E3        30.02S
EAU CLAIRE     PTCLDY    70  64  81 E6        29.96S
6HR MIN TEMP:  70; 6HR MAX TEMP:  77;

MENOMONIE      MOCLDY    69  66  90 CALM      29.97R
NEW RICHMOND   PTCLDY    70  65  85 SE6       29.95R
OSCEOLA        MOCLDY    71  67  87 E8        29.96S
$$

WIZ003>005-009-010-017-018-040700-
NORTH CENTRAL WISCONSIN

CITY           SKY/WX    TMP DP  RH WIND       PRES   REMARKS
MANITOWISH WTR CLEAR     63  63 100 E3        30.05R
ARBOR VITAE    CLEAR     62  61  97 CALM      30.05R
WOODRUFF       CLEAR     62  61  97 CALM      30.05R
RHINELANDER    CLEAR     62  61  96 CALM      30.07R FOG
6HR MIN TEMP:  58; 6HR MAX TEMP:  73;

EAGLE RIVER    CLEAR     61  61 100 CALM      30.06R
LAND O LAKES     N/A     58  58  99 CALM      30.07R FOG
PHILLIPS       CLEAR     61  61 100 CALM      30.03R
6HR MIN TEMP:  60; 6HR MAX TEMP:  76;

TOMAHAWK       CLEAR     56  55  97 CALM      30.05R FOG
MEDFORD        FOG       59  59 100 E3        30.02S VSB 1/4
MERRILL        FOG       56  56 100 NE3       30.05R VSB 1/2
6HR MIN TEMP:  56; 6HR MAX TEMP:  73;

$$

WIZ029-030-035-036-043>047-040700-
CENTRAL WISCONSIN

CITY           SKY/WX    TMP DP  RH WIND       PRES   REMARKS
WAUSAU         CLEAR     65  62  90 E5        30.01R
6HR MIN TEMP:  63; 6HR MAX TEMP:  74;

MOSINEE        CLEAR     63  63 100 E6        30.03R
MARSHFIELD     PTCLDY    65  61  87 E6        30.00S
6HR MIN TEMP:  64; 6HR MAX TEMP:  75;

STEVENS POINT  CLEAR     58  58  99 NE3       30.01S FOG
WAUPACA          N/A     62  62  98 NW3       30.00S FOG
WAUTOMA        NOT AVBL
WISC RAPIDS    MOCLDY    66  62  87 E5        30.01R
6HR MIN TEMP:  61; 6HR MAX TEMP:  75;

CAMP DOUGLAS   MOCLDY    64  64 100 E2        29.98R
$$

WIZ011>013-019>022-031-037>040-048>050-040700-
NORTHEAST WISCONSIN

CITY           SKY/WX    TMP DP  RH WIND       PRES   REMARKS
ANTIGO         CLEAR     60  60  99 CALM      30.05R
SHAWANO        NOT AVBL
OCONTO         CLEAR     62  62 100 CALM      29.99R
STURGEON BAY   MOCLDY    64  61  88 N3        30.01R
6HR MIN TEMP:  63; 6HR MAX TEMP:  70;

GREEN BAY      CLEAR     64  62  93 N8        29.99R
6HR MIN TEMP:  62; 6HR MAX TEMP:  73;

MANITOWOC      NOT AVBL
APPLETON       CLEAR     63  63 100 N7        29.98R
CLINTONVILLE   FOG       61  61 100 CALM      30.01R VSB 3/4
OSHKOSH        CLEAR     63  62  97 NW3       29.98R
6HR MIN TEMP:  63; 6HR MAX TEMP:  72;

$$

WIZ032>034-041-042-053>061-040700-
SOUTHWEST WISCONSIN

CITY           SKY/WX    TMP DP  RH WIND       PRES   REMARKS
LA CROSSE      CLEAR     73  67  81 SE6       29.95R
6HR MIN TEMP:  73; 6HR MAX TEMP:  84;

SPARTA         CLEAR     67  63  86 CALM      29.97S
VIROQUA          N/A     68  68 100 E7        29.98R
BOSCOBEL       CLEAR     73  68  84 CALM      29.96R
6HR MIN TEMP:  73; 6HR MAX TEMP:  88;

PRAIRIE DU CHI CLEAR     76  72  87 E3        29.93R
PLATTEVILLE    CLEAR     72  70  95 E8        29.96R
$$

WIZ056-057-062-063-064-067-068-040700-
SOUTH CENTRAL WISCONSIN

CITY           SKY/WX    TMP DP  RH WIND       PRES   REMARKS
REEDSBURG      CLOUDY    69  67  94 CALM      29.97S
BARABOO/DELLS  CLOUDY    69  65  87 E5        29.98S
LONE ROCK      NOT AVBL
MINERAL POINT  CLEAR     72  68  88 E5        29.97S
MADISON        CLOUDY    71  66  84 CALM      29.97S
6HR MIN TEMP:  70; 6HR MAX TEMP:  77;

MIDDLETON      CLOUDY    71  68  91 E3        29.98S
WATERTOWN      CLOUDY    71  71 100 CALM      29.98R
MONROE         MOCLDY    70  68  94 NE7       29.98R
JANESVILLE     CLOUDY    72  68  88 CALM      29.97R
$$

WIZ051-052-058>065-066-070>072-040700-
SOUTHEAST WISCONSIN

CITY           SKY/WX    TMP DP  RH WIND       PRES   REMARKS
MILWAUKEE      PTCLDY    66  63  90 CALM      29.97S
6HR MIN TEMP:  64; 6HR MAX TEMP:  68;

WAUKESHA       MOCLDY    64  63  94 E3        29.99S
MILWAUKEE/TIMM PTCLDY    64  61  88 CALM      29.98S
RACINE         CLOUDY    66  63  90 N5        29.98F
6HR MIN TEMP:  65; 6HR MAX TEMP:  70;

BURLINGTON     PTCLDY    66  64  92 E3        29.97S
KENOSHA        MOCLDY    67  64  90 CALM      29.98S
6HR MIN TEMP:  67; 6HR MAX TEMP:  72;

FOND DU LAC    CLEAR     62  61  96 CALM      29.98R
6HR MIN TEMP:  62; 6HR MAX TEMP:  73;

SHEBOYGAN      FOG       60  60 100 CALM      29.97R VSB 1
6HR MIN TEMP:  60; 6HR MAX TEMP:  66;

WEST BEND      MOCLDY    61  59  94 CALM      29.98R FOG
JUNEAU         CLOUDY    65  65  97 CALM      29.99S FOG
$$

LSZ147-162-040700-
LAKE SUPERIOR

STATION/POSITION TIME  TEMP    WIND        PRES    WAVE
                       AIR SEA DIR/SP/G            HT/PER
                 (UTC) (F)     (DEG/KT/KT) (MB)    (FT/S)
W MID LAKE BUOY  0450   60 57   80/  8/ 10 1015.8S   1
DEVILS ISLAND    0500   59      80/  5/  6 1016.0R
PORT WING        0540   56      50/  5/  6 1016.3R
SAXON HARBOR     0540   57        CALM     1015.6R
$$

LMZ867-665-643>646-040700-
LAKE MICHIGAN

STATION/POSITION TIME  TEMP    WIND        PRES    WAVE
                       AIR SEA DIR/SP/G            HT/PER
                 (UTC) (F)     (DEG/KT/KT) (MB)    (FT/S)
CHAMBERS ISLAND  0500   65      20/  9/ 11 1015.2R
S GREEN BAY BUOY 0500   67 66   20/ 10/ 14 1016.4R
N MID LAKE BUOY  0450   68 66   60/ 10/ 12 1014.5R   1/ 4
NORTHPORT PIER   0500   68      10/  4/  6 1015.2R
SISTER BAY       0511   68      10/  4/  8   N/A
ALGOMA LAKESHORE 0514           10/  9/ 14   N/A
KEWAUNEE LAKESHO 0500   67      10/  8/ 12 1013.7R
SHEBOYGAN LAKESH 0500   66     330/  6/  6 1014.5R
PORT WASHINGTON  0500   66     300/  2/  5 1015.2
ATWATER BUOY     0500   63     300/  4/  6 1016.2S
MILWAUKEE LAKESH 0510   67     330/  2/  2   N/A
S MID LAKE BUOY  0450   69 71  330/  8/ 10 1013.8R   1/ 3
KENOSHA   LAKESH 0500   65      10/  5/  7 1014.6S
$$

TC  - TEMPERATURE IN CELSIUS
VSB - VISIBILITY IN STATUTE MILES
WCI - WIND CHILL INDEX
HX  - HEAT INDEX




USA.gov is the U.S. government's official web portal to all federal, state and local government web resources and services.